Regional Weather Roundup
Issued by NWS Newport/Morehead, NC

Current Version | Previous Version | Graphics & Text | Print | Product List | Glossary Off
Versions: 1 2 3 4 5 6 7 8 9 10 11 12 13 14 15 16 17 18 19 20 21 22 23 24 25 26 27 28 29 30 31 32 33 34 35 36 37 38 39 40 41 42 43 44 45 46 47 48 49 50

000
ASUS42 KMHX 232122
RWRMHX
WEATHER ROUNDUP FOR EASTERN NORTH CAROLINA
NATIONAL WEATHER SERVICE NEWPORT/MOREHEAD CITY NC
500 PM EDT TUE SEP 23 2014

NOTE: "FAIR" INDICATES FEW OR NO CLOUDS BELOW 12,000 FEET
WITH NO SIGNIFICANT WEATHER AND/OR OBSTRUCTIONS TO VISIBILITY

NCZ015>017-031-032-045>047-102-103-232200-
NORTH COAST

CITY           SKY/WX    TMP DP  RH WIND       PRES   REMARKS
EDENTON        CLOUDY    63  56  78 N7        30.26S
ELIZABETH CITY CLOUDY    64  56  75 N12       30.26S
KITTY HAWK     DRIZZLE   66  58  76 N12G21    30.22F
MANTEO         CLOUDY    65  59  81 N17G24    30.23F

$$

NCZ045>047-081-094-103-104-232200-
CENTRAL COAST

CITY           SKY/WX    TMP DP  RH WIND       PRES   REMARKS
FRISCO         CLOUDY    68  61  78 NE14G23   30.17F
SWANQUARTER      N/A     64 N/A N/A VRB8G16   30.18S

$$

NCZ095-097-098-100-101-232200-
SOUTHERN COAST

CITY           SKY/WX    TMP DP  RH WIND       PRES   REMARKS
BEAUFORT       LGT RAIN  65  61  87 N18G28    30.17F
CEDAR ISLAND     N/A     68 N/A N/A VRB23G35  30.24S
JACKSONVILLE   LGT RAIN  62  59  90 N17G24    30.20S
NEWPORT        NOT AVBL
PINEY ISLAND   LGT RAIN  68  60  75 N17G28    30.18F
WILMINGTON     LGT RAIN  62  59  90 N12       30.19S


$$

NCZ011>013-027>030-043-044-078>080-089-090>093-098-232200-
COASTAL PLAIN

CITY           SKY/WX    TMP DP  RH WIND       PRES   REMARKS
AHOSKIE        CLOUDY    62  51  69 N6        30.30R
CLINTON        LGT RAIN  62  58  85 N7        30.25S
ELIZABETHTOWN  LGT RAIN  61  58  90 CALM      30.23R
GOLDSBORO      LGT RAIN  61  61 100 N2        30.24S
GREENVILLE     CLOUDY    63  55  77 N8        30.27R
HAVELOCK       LGT RAIN  64  61  90 N17G24    30.20F
KENANSVILLE    LGT RAIN  61  55  82 N7        30.25S
KINSTON        CLOUDY    63  57  82 N10G16    30.26R
NEW BERN       LGT RAIN  65  60  84 N12       30.23S
RICHLANDS      CLOUDY    61  55  82 N7        30.22S
ROANOKE RAPIDS NOT AVBL
ROCKY MOUNT    CLOUDY    64  53  67 N10       30.28S
WASHINGTON     CLOUDY    61  58  90 N8        30.25S
WHITEVILLE     RAIN      62  58  88 N3        30.21S

$$

AMZ130-135-150-152-154-156-158-170-250-252-270-ANZ085-086-088-633-658-670-232200-
MARINE OBSERVATIONS

STATION/POSITION TIME  TEMP    WIND        PRES    WAVE   SWELL
                       AIR SEA DIR/SP/G            HT/PER HT/PER
                 (UTC) (F)     (DEG/KT/KT) (MB)    (FT/S) (FT/S)
CHESAPEAKE LIGHT 2100   64      40/ 16/ 18 1026.0
BUOY 44014       2100   68 75   30/ 17/ 19 1023.8    4/ 4   2/ 7
DUCK             2100   67 73   30/ 19/ 23 1023.4
2E DUCK          2100                        N/A     4/ 5
OREGON INLET     2100   68 73   20/ 18/ 23 1022.9
BUOY 44095       2100      74                N/A     5/ 5
20E OREGON INLET NOT AVBL
HATTERAS CG      NOT AVBL
DIAMOND BUOY     2100   74      10/ 25/ 31 1020.0    6/ 7   2/12
CAPE LOOKOUT     2100   66      20/ 23/ 27 1021.3
BEAUFORT LAB     2100   65 74   20/ 17/ 21 1021.1
30 SE NEW RIVER  2100   71 82   20/ 27/ 33 1019.3    8/ 6
5 SE WRIGHTSVILL 2100   63 78   20/ 19/ 23   N/A
BUOY 41002       2021   78 80  120/ 12/ 14 1018.0    3/ 8   3/ 8
BUOY 41004       2100   72 81   10/ 29/ 35 1017.3    7/ 7   2/14

$$


USA.gov is the U.S. government's official web portal to all federal, state and local government web resources and services.